Flag for United Kingdom Weather past 2 weeks in Nottingham, England, United Kingdom

50 °F

Passing clouds.

Feels Like: 44 °F
Forecast: 43 / 49 °F
Wind: 17 mph from Northwest

Location: East Midlands

Current Time: Nov 25, 2015 at 1:24:44 PM

Latest Report: Nov 25, 2015 at 12:50 PM

Visibility: N/A

Pressure: 29.86 "Hg

Humidity: 76%

Dew point: 43 °F

Location of NottinghamLocation

Historic Weather in Nottingham — Graph


Nottingham temperature yesterday

Maximum temperature yesterday: 48 °F (at 12:50 PM)
Minimum temperature yesterday: 43 °F (at 12:20 AM)
Average temperature yesterday: 45 °F

Past Weeks' High & Low Weather Summary

High63 °F (Nov 10, 12:20 PM)100% (Nov 14, 2:20 PM)30.24 "Hg (Nov 14, 2:20 PM)
Low27 °F (Nov 21, 7:50 PM)54% (Nov 13, 1:50 PM)29.33 "Hg (Nov 17, 3:20 PM)
Average47 °F82%29.86 "Hg
* Reported Nov 10 12:20 PM — Nov 25 12:20 PM, Nottingham, Weather by CustomWeather, © 2015

Note: Actual official high and low records may vary slightly from our data, if they occured in-between our weather recording intervals... More about our weather records


Nottingham weather history for previous 24 hours

Time TempWeatherWind HumidityBarometerVisibility
12:20 PM
Wed, Nov 25
52 °FPassing clouds.15 mph72%29.86 "HgN/A
11:50 AM50 °FScattered clouds.15 mph76%29.86 "HgN/A
10:50 AM48 °FScattered clouds.12 mph82%29.86 "HgN/A
9:50 AM48 °FPassing clouds.10 mph82%29.83 "HgN/A
9:20 AM46 °FPassing clouds.9 mph87%29.83 "HgN/A
8:50 AM46 °FPartly sunny.9 mph87%29.83 "HgN/A
8:20 AM46 °FPartly sunny.10 mph87%29.83 "HgN/A
7:50 AM45 °FScattered clouds.8 mph93%29.80 "HgN/A
7:20 AM45 °FPassing clouds.9 mph93%29.80 "HgN/A
6:50 AM45 °FPartly cloudy.7 mph93%29.80 "HgN/A
6:20 AM45 °FPartly cloudy.8 mph93%29.80 "HgN/A
5:50 AM45 °FLight rain. Partly cloudy.9 mph93%29.80 "HgN/A
5:20 AM45 °FPassing clouds.10 mph87%29.80 "HgN/A
4:50 AM45 °FPassing clouds.9 mph87%29.77 "HgN/A
4:20 AM43 °FPassing clouds.8 mph93%29.77 "HgN/A
3:20 AM43 °FPassing clouds.10 mph93%29.80 "HgN/A
2:50 AM43 °FPassing clouds.12 mph93%29.77 "HgN/A
2:20 AM43 °FPassing clouds.13 mph87%29.77 "HgN/A
1:50 AM43 °FPassing clouds.15 mph93%29.77 "HgN/A
1:20 AM43 °FPassing clouds.14 mph93%29.77 "HgN/A
12:20 AM45 °FPartly cloudy.12 mph93%29.77 "HgN/A
11:50 PM
Tue, Nov 24
45 °FPassing clouds.12 mph93%29.77 "HgN/A
11:20 PM45 °FPartly cloudy.9 mph93%29.77 "HgN/A
10:50 PM45 °FPartly cloudy.12 mph93%29.77 "HgN/A
10:20 PM43 °FPassing clouds.13 mph93%29.77 "HgN/A
9:50 PM45 °FSprinkles. Partly cloudy.13 mph93%29.77 "HgN/A
9:20 PM45 °FPartly cloudy.16 mph87%29.77 "HgN/A
8:50 PM45 °FPartly cloudy.15 mph87%29.77 "HgN/A
8:20 PM45 °FPassing clouds.14 mph87%29.77 "HgN/A
7:50 PM45 °FPassing clouds.14 mph93%29.77 "HgN/A
7:20 PM43 °FPassing clouds.14 mph93%29.77 "HgN/A
6:50 PM43 °FPassing clouds.17 mph93%29.77 "HgN/A
6:20 PM43 °FPassing clouds.15 mph93%29.77 "HgN/A
5:50 PM45 °FPartly cloudy.15 mph87%29.77 "HgN/A
5:20 PM45 °FPassing clouds.10 mph87%29.77 "HgN/A
4:50 PM45 °FRain. Partly cloudy.14 mph93%29.77 "Hg4 mi
4:20 PM45 °FRain showers. Passing clouds.12 mph87%29.77 "Hg3 mi
3:50 PM45 °FBroken clouds.14 mph93%29.74 "Hg4 mi
3:20 PM46 °FBroken clouds.12 mph93%29.74 "Hg5 mi
2:50 PM45 °FSprinkles. Broken clouds.9 mph93%29.74 "Hg4 mi
2:20 PM46 °FLight rain. Partly sunny.13 mph93%29.74 "Hg3 mi
1:50 PM48 °FSprinkles. Broken clouds.14 mph82%29.74 "HgN/A
1:20 PM48 °FSprinkles. Broken clouds.13 mph82%29.77 "HgN/A
Weather by CustomWeather, © 2015

See weather overviewHow to use our weather pages